Weather History for 10488 - November, 2013

Change the Weather History Date:

Sunday, November 3, 2013

  Actual Average Record
Temperature  
Mean Temperature 48 °F -  
Max Temperature 53 °F - - ()
Min Temperature 44 °F - - ()
Degree Days  
Heating Degree Days 16    
Moisture  
Dew Point 43 °F    
Average Humidity 76    
Maximum Humidity 94    
Minimum Humidity 63    
Precipitation  
Precipitation 0.12 in - - ()
Sea Level Pressure  
Sea Level Pressure 29.62 in    
Wind  
Wind Speed 10 mph ()    
Max Wind Speed 21 mph    
Max Gust Speed 32 mph    
Visibility 7.9 miles    
Events Rain    
T = Trace of Precipitation, MM = Missing Value Source: Averaged Metar Reports

Daily Weather History Graph

Daily Weather History Graph

Search for Another Location

Airport or City:

Trip Planner

Search our weather history database for the weather conditions in past years. The results will help you decide how hot, cold, wet, or windy it might be!

Date:

Astronomy

Nov. 03, 2013 Rise Set
Actual Time 7:01 AM CET 4:35 PM CET
Civil Twilight 6:25 AM CET 5:10 PM CET
Nautical Twilight 5:46 AM CET 5:49 PM CET
Astronomical Twilight 5:08 AM CET 6:28 PM CET
Moon 6:45 AM CET (11/3) 4:34 PM CET (11/3)
Length of Visible Light 10h 44m
Length of Day
9h 34m
Waning Crescent, 0% of the Moon is Illuminated
Nov 3
Waning Crescent
Nov 3
New
Nov 10
First Quarter
Nov 17
Full
Nov 25
Last Quarter

Hourly Weather History & Observations

Time (CET) Temp. Windchill Dew Point Humidity Pressure Visibility Wind Dir Wind Speed Gust Speed Precip Events Conditions
12:00 AM 56 °F - 50 °F 73% 29.67 in 31 mi SW 11.2 mph - -   Scattered Clouds
12:20 AM 57.2 °F - 48.2 °F 72% 29.65 in 6.2 mi WSW 11.5 mph - N/A   Scattered Clouds
12:50 AM 57.2 °F - 48.2 °F 72% 29.65 in 6.2 mi WSW 11.5 mph - N/A   Mostly Cloudy
1:00 AM 57 °F - 48 °F 63% 29.67 in 31 mi WSW 13.4 mph - -   Partly Cloudy
1:20 AM 55.4 °F - 46.4 °F 72% 29.65 in 6.2 mi WSW 9.2 mph - N/A   Mostly Cloudy
1:50 AM 53.6 °F - 46.4 °F 77% 29.65 in - SW 8.1 mph - N/A   Clear
2:00 AM 54 °F - 46 °F 66% 29.66 in 31 mi SW 8.9 mph - -   Partly Cloudy
2:20 AM 53.6 °F - 44.6 °F 72% 29.62 in - SW 6.9 mph - N/A   Clear
2:50 AM 51.8 °F - 44.6 °F 76% 29.62 in - SW 6.9 mph - N/A   Clear
3:00 AM 52 °F - 46 °F 72% 29.64 in 31 mi SSW 11.2 mph - -   Scattered Clouds
3:20 AM 51.8 °F - 44.6 °F 76% 29.59 in - SSE 4.6 mph - N/A   Clear
3:50 AM 51.8 °F - 44.6 °F 76% 29.59 in - South 6.9 mph - N/A   Clear
4:20 AM 51.8 °F - 44.6 °F 76% 29.59 in - South 10.4 mph - N/A   Clear
4:50 AM 51.8 °F - 44.6 °F 76% 29.59 in - South 9.2 mph - N/A   Clear
5:00 AM 51 °F - 45 °F 73% 29.61 in 31 mi SSE 8.9 mph - -   Clear
5:20 AM 50.0 °F - 44.6 °F 82% 29.56 in - SSE 8.1 mph - N/A   Clear
5:50 AM 53.6 °F - 44.6 °F 72% 29.56 in - South 9.2 mph - N/A   Clear
6:00 AM 53 °F - 44 °F 64% 29.58 in 25 mi South 11.2 mph - -   Clear
6:20 AM 51.8 °F - 44.6 °F 76% 29.56 in - South 10.4 mph - N/A   Clear
6:50 AM 53.6 °F - 44.6 °F 72% 29.56 in - South 13.8 mph - N/A   Clear
7:00 AM 53 °F - 45 °F 66% 29.57 in 28 mi South 13.4 mph - -   Overcast
7:20 AM 53.6 °F - 44.6 °F 72% 29.56 in 6.2 mi South 11.5 mph - N/A   Mostly Cloudy
7:50 AM 51.8 °F - 46.4 °F 82% 29.56 in 6.2 mi South 12.7 mph - N/A Rain Rain
8:00 AM 53 °F - 47 °F 75% 29.58 in 6 mi South 11.2 mph - - Rain Rain
8:20 AM 51.8 °F - 48.2 °F 88% 29.53 in 6.2 mi South 13.8 mph - N/A Rain Light Rain
8:50 AM 51.8 °F - 50.0 °F 94% 29.53 in 6.2 mi South 11.5 mph - N/A Rain Rain
9:00 AM 52 °F - 50 °F 89% 29.56 in 10 mi SSE 11.2 mph - - Rain Rain
9:20 AM 51.8 °F - 50.0 °F 94% 29.53 in 6.2 mi South 11.5 mph - N/A Rain Rain
9:50 AM 51.8 °F - 50.0 °F 94% 29.53 in 6.2 mi South 13.8 mph - N/A Rain Rain
10:20 AM 51.8 °F - 50.0 °F 94% 29.53 in 6.2 mi SW 9.2 mph - N/A   Mostly Cloudy
10:50 AM 51.8 °F - 46.4 °F 82% 29.53 in 6.2 mi WSW 13.8 mph - N/A Rain Light Rain
11:00 AM 52 °F - 47 °F 78% 29.56 in 9 mi WSW 15.7 mph - - Rain Light Rain
11:20 AM 50.0 °F - 46.4 °F 87% 29.56 in 6.2 mi West 9.2 mph - N/A   Mostly Cloudy
11:50 AM 50.0 °F - 44.6 °F 82% 29.56 in 6.2 mi West 9.2 mph - N/A   Mostly Cloudy
12:00 PM 50 °F - 45 °F 75% 29.58 in 22 mi West 13.4 mph - - Rain Light Rain
12:20 PM 50.0 °F - 42.8 °F 76% 29.59 in 6.2 mi WSW 10.4 mph - N/A   Mostly Cloudy
12:50 PM 50.0 °F - 42.8 °F 76% 29.56 in 6.2 mi West 10.4 mph - N/A   Mostly Cloudy
1:00 PM 50 °F - 43 °F 71% 29.59 in 19 mi West 13.4 mph - -   Partly Cloudy
1:20 PM 50.0 °F - 42.8 °F 76% 29.59 in 6.2 mi West 10.4 mph - N/A   Mostly Cloudy
1:50 PM 50.0 °F - 42.8 °F 76% 29.56 in 6.2 mi West 10.4 mph - N/A   Mostly Cloudy
2:00 PM 51 °F - 43 °F 67% 29.59 in 22 mi West 11.2 mph - -   Overcast
2:20 PM 50.0 °F - 42.8 °F 76% 29.56 in 6.2 mi WSW 11.5 mph - N/A   Mostly Cloudy
2:50 PM 50.0 °F - 41.0 °F 71% 29.59 in 6.2 mi WSW 12.7 mph - N/A   Mostly Cloudy
3:00 PM 51 °F - 42 °F 63% 29.62 in 16 mi WSW 13.4 mph - -   Partly Cloudy
3:20 PM 50.0 °F - 42.8 °F 76% 29.59 in 6.2 mi WSW 10.4 mph - N/A   Scattered Clouds
3:50 PM 48.2 °F - 41.0 °F 76% 29.62 in 6.2 mi West 20.7 mph 32.2 mph N/A Rain Rain Showers
4:20 PM 46.4 °F 41.9 °F 41.0 °F 81% 29.62 in 6.2 mi WSW 9.2 mph - N/A   Mostly Cloudy
4:50 PM 46.4 °F 40.7 °F 39.2 °F 76% 29.65 in 6.2 mi WSW 12.7 mph - N/A   Mostly Cloudy
5:00 PM 47 °F - 40 °F 67% 29.68 in 19 mi WSW 15.7 mph - - Rain Light Rain Showers
5:20 PM 46.4 °F 41.9 °F 39.2 °F 76% 29.65 in - WSW 9.2 mph - N/A   Clear
5:50 PM 44.6 °F 40.2 °F 39.2 °F 81% 29.68 in 6.2 mi WSW 8.1 mph - N/A   Partly Cloudy
6:00 PM 45 °F - 40 °F 75% 29.70 in 16 mi SW 11.2 mph - -   Scattered Clouds
6:20 PM 44.6 °F 39.2 °F 39.2 °F 81% 29.68 in 6.2 mi SW 10.4 mph - N/A   Scattered Clouds
6:50 PM 44.6 °F 39.7 °F 39.2 °F 81% 29.68 in 6.2 mi WSW 9.2 mph - N/A   Partly Cloudy
7:00 PM 45 °F - 40 °F 75% 29.71 in 19 mi WSW 13.4 mph - -   Partly Cloudy
7:20 PM 44.6 °F 39.2 °F 39.2 °F 81% 29.68 in 6.2 mi WSW 10.4 mph - N/A   Partly Cloudy
7:50 PM 44.6 °F 38.4 °F 37.4 °F 76% 29.68 in - WSW 12.7 mph 32.2 mph N/A   Clear
8:00 PM 45 °F - 38 °F 70% 29.72 in - WSW 15.7 mph - -  
8:20 PM 44.6 °F 38.1 °F 37.4 °F 76% 29.68 in - WSW 13.8 mph - N/A   Clear
8:50 PM 44.6 °F 38.1 °F 37.4 °F 76% 29.71 in - SW 13.8 mph - N/A   Clear
9:00 PM 45 °F - 38 °F 68% 29.73 in 22 mi SW 15.7 mph - -  
9:20 PM 44.6 °F 38.8 °F 37.4 °F 76% 29.71 in - SW 11.5 mph - N/A   Clear
9:50 PM 44.6 °F 38.4 °F 37.4 °F 76% 29.71 in - SW 12.7 mph - N/A   Clear
10:20 PM 44.6 °F 38.1 °F 37.4 °F 76% 29.71 in 6.2 mi WSW 13.8 mph - N/A   Scattered Clouds
10:50 PM 44.6 °F 37.8 °F 37.4 °F 76% 29.71 in 6.2 mi SW 15.0 mph - N/A   Mostly Cloudy
11:00 PM 45 °F - 37 °F 66% 29.73 in 22 mi SW 15.7 mph - -   Mostly Cloudy
11:20 PM 46.4 °F 40.1 °F 37.4 °F 71% 29.68 in 6.2 mi SW 15.0 mph - N/A   Mostly Cloudy
11:50 PM 44.6 °F 37.8 °F 35.6 °F 71% 29.68 in - SW 15.0 mph - N/A   Clear